Location: Burkheim
(48.1008°N, 7.5995°E)
Time: 06:13:33
(UTC+00:00)

Daily predictions for brighter satellites

Satellite Brightness Start Highest point End
(mag) Time Altitude Azimuth Time Altitude Azimuth Time Altitude Azimuth
Cosmos 1954 Rocket 4.4 19:08:16 10° S 19:13:17 44° ESE 19:18:20 10° NE
DMSP B5D2-2 4.2 19:09:17 10° NNE 19:14:26 54° E 19:19:33 10° S
IRIDIUM 103 4.3 19:11:41 10° S 19:16:53 80° E 19:22:08 10° N
FREGAT/IRIS 2.6 19:14:46 10° S 19:17:23 69° WSW 19:20:01 10° NNW
Cosmos 1821 Rocket 4.0 19:12:01 10° S 19:18:10 77° E 19:24:27 10° NNE
Ariane Rocket 3.3 19:13:26 10° S 19:18:29 73° WSW 19:23:34 10° NNW
Cosmos 405 Rocket 4.3 19:16:13 10° SE 19:18:40 17° E 19:21:08 10° NE
Intercosmos 25 3.0 19:14:53 10° N 19:18:41 85° E 19:21:51 10° S
Cosmos 1812 3.3 19:16:23 10° NNW 19:20:11 61° W 19:23:58 10° S
Cosmos 1805 Rocket 3.9 19:16:49 10° SSW 19:21:15 73° W 19:25:45 10° N
Cosmos 407 Rocket 3.8 19:18:18 10° SSW 19:23:38 79° WNW 19:28:55 10° NNE
SJ-6B 3.2 19:22:27 10° S 19:26:27 69° WSW 19:30:23 10° NNW
Cosmos 2333 Rocket 4.4 19:24:47 10° N 19:27:21 13° NNE 19:29:53 10° ENE
Cosmos 1862 4.4 19:23:42 10° SSW 19:27:38 50° WNW 19:31:37 10° N
Cosmos 1190 Rocket 4.1 19:22:31 10° SSW 19:27:49 87° WNW 19:33:11 10° NNE
NOSS 2 (A) 4.1 19:25:26 10° NW 19:28:02 73° SW 19:30:20 10° SE
Cosmos 1763 Rocket 4.3 19:23:23 10° N 19:28:22 38° ENE 19:33:12 10° SE
deb Kosmos-1763 4.0 19:25:27 10° SSW 19:29:04 87° ESE 19:32:45 10° NNE
Cosmos 1437 Rocket 4.4 19:26:41 10° NNE 19:29:22 18° ENE 19:31:55 10° ESE
Cosmos 1140 Rocket 3.6 19:24:24 10° SSW 19:29:39 87° WNW 19:34:56 10° NNE
FALCON 9 DEB 3.9 19:26:58 10° W 19:30:24 54° NNW 19:33:51 10° ENE
Resurs 1-3 3.6 19:27:10 10° SSE 19:31:31 70° ENE 19:35:55 10° N
OBJECT-B 0.8 19:30:50 10° SSE 19:34:07 79° ENE 19:37:25 10° N
Cosmos 1441 Rocket 4.4 19:31:15 10° SSW 19:34:52 45° WNW 19:38:29 10° N
Cosmos 2084 Rocket 4.3 19:31:32 10° S 19:35:06 28° ESE 19:38:46 10° ENE
Cosmos 1633 Rocket 3.0 19:33:06 10° S 19:37:30 70° E 19:41:54 10° NNE
Cosmos 1184 Rocket 2.9 19:35:07 10° S 19:38:20 53° E 19:41:34 10° NNE
Cosmos 921 Rocket 2.9 19:36:46 10° NNW 19:40:59 69° ENE 19:45:04 10° SSE
Cosmos 2123 Rocket 4.0 19:35:56 10° N 19:42:12 79° E 19:48:28 10° SSE
Cosmos 1535 Rocket 4.4 19:37:53 10° S 19:43:57 70° E 19:50:02 10° NNE
Meteor 1-27 Rocket 4.4 19:41:37 10° NNW 19:47:29 62° W 19:53:18 10° S
Cosmos 1605 Rocket 4.1 19:46:29 10° SSE 19:52:25 55° E 19:58:20 10° NNE
Okean 1 3.9 19:49:26 10° N 19:53:18 41° ENE 19:56:08 17° SE
CZ-2C R/B 3.0 19:48:54 10° N 19:54:04 68° WNW 19:59:16 10° SSW
NOSS 3-2 (A) 3.4 19:50:38 10° SW 19:56:21 84° SE 20:02:58 10° NE
USA 267 3.9 19:52:12 10° ENE 19:57:52 30° SE 20:03:29 10° S
Cosmos 2219 Rocket 4.3 19:54:29 10° N 19:57:57 16° NE 20:01:26 10° ENE
Cosmos 540 Rocket 4.3 19:56:29 10° N 20:01:17 36° ENE 20:04:39 18° ESE
SL-16 R/B 2.4 19:56:35 10° NNW 20:02:14 62° ENE 20:06:27 18° SE
SL-4 R/B 2.6 19:59:21 10° W 20:03:16 51° N 20:06:54 10° ENE
BREEZE-M DEB (TANK) 2.5 20:01:30 10° W 20:04:08 77° N 20:10:45 10° E
SL-27 R/B 3.1 20:04:28 21° SSE 20:05:52 30° ESE 20:08:50 10° NE
Cosmos 2242 Rocket 3.7 20:01:36 10° N 20:05:59 58° ENE 20:09:08 18° SSE
NOSS 3-2 (C) 3.3 20:01:24 10° SSW 20:07:02 66° SE 20:13:30 10° NE
Cosmos 1470 Rocket 3.5 20:02:55 10° S 20:07:18 80° E 20:11:41 10° NNE
BREEZE-M DEB (TANK) 1.8 20:09:03 10° W 20:11:42 66° N 20:12:31 29° ENE
Cosmos 2082 Rocket 3.2 20:06:10 10° SW 20:11:42 51° NW 20:17:15 10° NNE
ERS-1 Rocket 3.6 20:16:14 21° ESE 20:19:00 39° ENE 20:23:40 10° N
Meteor 1-14 Rocket 4.5 20:13:25 10° S 20:19:07 56° E 20:24:58 10° NNE
Cosmos 2322 Rocket 2.3 20:13:52 10° NNW 20:19:34 68° ENE 20:23:14 23° SE
Cosmos 1862 Rocket 4.4 20:16:59 10° NNW 20:21:17 49° W 20:25:31 10° SSW
Cosmos 1850 Rocket 3.9 20:18:50 10° SSW 20:24:06 71° ESE 20:29:22 10° NNE
Meteor 1-25 Rocket 4.3 20:20:20 10° SSW 20:25:55 81° WNW 20:31:37 10° N
Cosmos 1500 4.0 20:25:36 29° ESE 20:26:12 31° E 20:29:33 10° NNE
SPOT 1/Viking Rocket 3.6 20:23:32 22° SSE 20:26:53 66° ENE 20:32:05 10° N
Cosmos 841 Rocket 3.7 20:21:52 10° NNW 20:27:04 59° ENE 20:29:56 26° SE
USA 32 4.2 20:23:21 10° SSW 20:28:34 74° W 20:33:49 10° N
Cosmos 2360 Rocket 2.7 20:23:13 10° NNW 20:28:42 47° NE 20:31:48 24° ESE
USA 276 2.2 20:26:18 10° WNW 20:29:26 60° SSW 20:30:10 44° SSE
Meteor 1-18 Rocket 4.2 20:24:05 10° NNW 20:29:41 86° W 20:33:52 18° S
Terra 2.9 20:27:56 23° ESE 20:29:54 31° ENE 20:34:05 10° N
X-37B 1.7 20:27:19 10° W 20:30:07 29° SSW 20:30:22 28° S
IGS 5A 3.4 20:29:39 25° SSE 20:32:04 90° ENE 20:36:15 10° NNW
ATLAS 3B R/B 3.0 20:26:12 10° S 20:32:13 39° ESE 20:38:17 10° NE
Cosmos 1238 Rocket 2.7 20:30:33 14° SSW 20:32:54 54° WNW 20:35:55 10° N
USA 234 3.6 20:29:00 15° E 20:34:23 59° NNE 20:40:47 10° NW
Cosmos 468 Rocket 4.4 20:30:48 10° NNW 20:36:01 59° WSW 20:39:42 19° S
Cosmos 1666 4.3 20:37:36 19° ENE 20:37:36 19° ENE 20:39:49 10° NE
Cosmos 1980 Rocket 4.0 20:32:37 10° NW 20:37:09 25° WSW 20:41:39 10° SSW
Cosmos 44 3.4 20:33:03 10° NW 20:37:59 80° SW 20:40:36 30° SSE
Resurs 01 Rocket 2.9 20:35:03 10° SSW 20:39:09 37° W 20:43:18 10° NNW
Lacrosse 5 2.6 20:34:33 10° WNW 20:39:20 42° SW 20:41:50 24° S
Iridium 4 Rocket 3.9 20:38:43 29° ESE 20:39:22 30° E 20:43:01 10° NNE
Cosmos 1602 4.1 20:37:46 12° SSW 20:41:23 65° W 20:45:20 10° N
CARTOSAT-1 3.7 20:40:31 34° SE 20:42:08 58° ENE 20:46:24 10° N
Cosmos 1153 Rocket 4.4 20:36:51 11° S 20:42:53 84° E 20:49:08 10° N
GP-B 3.9 20:40:03 10° N 20:44:21 50° W 20:48:37 10° SSW
CZ-4B DEB 4.3 20:46:38 55° SE 20:47:09 66° ENE 20:50:28 10° N
Cosmos 1933 Rocket 4.2 20:43:34 10° SSW 20:47:54 57° WNW 20:52:19 10° N
Cosmos 2061 Rocket 4.4 20:50:45 30° SE 20:53:05 42° E 20:58:51 10° NNE
Cosmos 405 Rocket 4.0 20:50:52 10° SW 20:54:20 38° WNW 20:57:54 10° N
Spot 2 Rocket 3.8 20:51:17 23° S 20:54:29 62° WSW 20:59:33 10° NNW
Cosmos 1814 Rocket 3.9 20:49:30 10° NNW 20:54:46 80° ENE 20:56:56 36° SSE
COSMOS 2428 4.0 20:50:01 10° NNW 20:55:01 30° NE 20:57:48 20° E
USA 238 DEB 4.5 20:50:42 10° WSW 20:57:12 53° NW 21:04:02 10° NE
USA 238 4.5 20:50:47 10° WSW 20:57:17 53° NW 21:04:08 10° NE
Cosmos 1802 Rocket 4.2 20:54:58 30° SSE 20:58:00 55° E 21:04:10 10° NNE
Cosmos 1515 4.3 20:54:20 10° NNW 20:58:04 51° W 20:59:36 30° SSW
Cosmos 2237 Rocket 4.3 20:55:26 10° N 20:58:58 17° NE 21:02:31 10° ENE
Cosmos 1869 Rocket 3.5 20:57:44 36° S 20:59:31 79° E 21:04:00 10° NNE
Okean 1-7 3.4 20:55:41 10° NNW 20:59:55 59° W 21:01:51 30° SSW
CENTAUR R/B 2.9 20:54:12 10° SW 21:00:14 70° NW 21:07:28 10° NE
Cosmos 44 Rocket 4.5 20:57:28 10° NNW 21:02:01 34° NE 21:04:15 24° E
Cosmos 1437 Rocket 3.8 21:02:15 10° NNW 21:05:48 38° W 21:07:19 26° SW
Cosmos 1570 Rocket 4.4 21:07:31 10° NNW 21:12:46 61° WSW 21:14:58 34° S
Cosmos 2333 Rocket 2.9 21:07:41 10° NNW 21:13:14 44° NE 21:15:19 32° ESE
ATLAS 5 CENTAUR R/B 2.2 21:10:47 10° NW 21:13:27 62° NE 21:14:58 39° ESE
SPOT 5 2.7 21:17:39 49° S 21:18:43 73° WSW 21:23:11 10° NNW
Cosmos 1066 Rocket 4.5 21:14:35 10° N 21:20:07 52° ENE 21:21:30 42° ESE
Meteor 1-5 Rocket 4.3 21:18:35 28° S 21:21:54 88° WNW 21:27:49 10° NNE
Cosmos 2208 Rocket 4.3 21:19:07 10° NNW 21:24:16 57° WSW 21:25:57 39° SSW
Cosmos 1733 Rocket 3.3 21:29:41 53° E 21:29:41 53° E 21:33:51 10° NNE
Cosmos 1356 4.0 21:30:29 50° NNE 21:30:29 50° NNE 21:33:07 10° NNE
ERBS 3.7 21:27:04 10° NW 21:30:05 31° NNE 21:30:13 31° NNE
Meteor 1-11 Rocket 3.6 21:31:46 45° S 21:33:36 80° E 21:39:26 10° NNE
Tsikada Rocket 4.0 21:30:37 10° N 21:36:58 72° E 21:38:46 48° SSE
Cosmos 968 Rocket 3.9 21:37:25 42° E 21:37:25 42° E 21:41:50 10° NE
Lacrosse 4 Rocket 1.4 21:37:37 67° ENE 21:37:37 67° ENE 21:41:22 10° NE
ALOS 2 4.4 21:39:37 19° ENE 21:39:56 19° ENE 21:43:02 10° NNE
Cosmos 2100 Rocket 4.4 21:36:57 21° SSW 21:41:01 59° WNW 21:47:07 10° N
USA 267 3.2 21:34:49 10° NE 21:41:24 89° SE 21:47:58 10° WSW
GENESIS II 4.3 21:37:34 10° NW 21:41:16 74° WNW 21:41:16 74° WNW
Cosmos 2219 Rocket 2.4 21:37:26 10° NNW 21:43:07 63° ENE 21:44:23 50° ESE
SL-4 R/B 2.2 21:39:27 10° WNW 21:42:58 57° N 21:42:58 57° N
Cosmos 2173 Rocket 4.4 21:41:11 23° SSW 21:45:00 58° WNW 21:51:03 10° N
SL-16 R/B 3.9 21:41:26 10° NW 21:45:53 24° WSW 21:48:20 18° SW
Cosmos 1242 Rocket 3.2 21:47:55 10° NNW 21:50:53 56° NNW 21:50:53 56° NNW
Meteor 1-23 Rocket 4.2 21:50:13 10° NNW 21:56:05 87° W 21:57:14 60° S
Cosmos 2322 3.6 21:50:49 10° NNW 21:56:30 77° WSW 21:57:25 62° S
Cosmos 1725 Rocket 4.0 21:55:18 44° SSW 21:57:30 82° W 22:03:53 10° N
ERS-1 Rocket 4.3 21:56:14 25° SW 21:57:53 31° W 22:02:19 10° NNW
Spot 4 4.1 21:58:19 52° E 21:58:30 53° ENE 22:03:13 10° N
Cosmos 1833 4.3 21:58:11 32° SW 22:00:50 71° WNW 22:06:32 10° NNE
SL-08 R/B 4.5 21:59:40 43° SSW 22:01:44 74° W 22:07:52 10° N
Cosmos 836 Rocket 4.3 21:56:32 10° NNW 22:01:47 89° WSW 22:02:12 76° SSE
Cosmos 1536 3.3 22:03:04 55° WNW 22:03:04 55° WNW 22:06:48 10° N
Cosmos 2322 Rocket 3.9 21:58:51 10° NW 22:03:05 22° W 22:05:03 18° SW
Cosmos 1908 Rocket 4.4 22:04:49 39° NE 22:04:49 39° NE 22:08:01 10° NNE
Cosmos 1378 Rocket 3.6 22:00:43 10° N 22:04:52 74° NNE 22:04:52 74° NNE
Cosmos 2016 Rocket 4.4 22:02:20 33° SW 22:05:14 61° WNW 22:11:35 10° N
Terra 2.8 22:06:49 34° WSW 22:07:34 36° W 22:11:58 10° NNW
Cosmos 2333 4.4 22:05:41 10° NNW 22:11:23 60° WSW 22:12:06 56° SW
COSMOS 2487 4.0 22:12:28 34° NNW 22:12:28 34° NNW 22:15:01 10° N
Cosmos 1666 4.1 22:12:27 33° WNW 22:12:27 33° WNW 22:15:53 10° N
Cosmos 2360 Rocket 3.3 22:07:33 10° NW 22:12:32 33° WSW 22:13:33 30° SW
SL-16 R/B 4.2 22:10:24 10° N 22:14:42 21° NE 22:17:40 15° E
USA 234 3.3 22:16:20 54° S 22:17:24 61° SW 22:23:53 10° WNW
MOS 1-B Rocket 3.7 22:16:39 10° NNE 22:22:17 88° WNW 22:23:10 66° SSW
Cosmos 1378 4.3 22:18:39 10° NNW 22:21:16 41° NW 22:21:16 41° NW
ATLAS 3B R/B 3.2 22:16:16 10° WSW 22:22:44 55° NW 22:29:17 10° NE
Cosmos 1354 Rocket 4.2 22:23:58 60° E 22:23:58 60° E 22:28:47 10° NNE
Cosmos 1975 Rocket 3.9 22:23:36 10° N 22:27:17 45° NE 22:27:17 45° NE
Cosmos 2297 Rocket 3.6 22:32:12 25° E 22:32:12 25° E 22:35:36 10° NE
Meteor 1-21 4.4 22:26:50 10° N 22:32:35 61° ENE 22:33:00 59° E
Cosmos 1743 3.9 22:35:20 43° NNW 22:35:20 43° NNW 22:38:09 10° N
Cosmos 1975 4.1 22:36:14 36° NNE 22:36:14 36° NNE 22:38:48 10° NNE
Meteor 2-9 Rocket 4.4 22:35:06 56° E 22:35:06 56° E 22:40:38 10° NNE
Thor Agena Rocket 3.5 22:30:08 10° NNE 22:35:03 78° ENE 22:35:03 78° ENE
Okean 2 4.2 22:31:24 10° N 22:34:30 49° N 22:34:30 49° N
Cosmos 2233 Rocket 4.2 22:34:08 50° SW 22:35:42 66° W 22:42:02 10° N
Cosmos 1980 3.8 22:30:45 10° NNW 22:36:25 63° ENE 22:36:58 59° E
Timation 2 Rocket 4.1 22:39:51 53° E 22:39:51 53° E 22:45:18 10° NE
COSMOS 2428 2.9 22:34:01 10° NW 22:39:40 59° WSW 22:39:48 58° WSW
Cosmos 44 Rocket 4.1 22:38:54 10° NW 22:42:56 44° W 22:42:56 44° W
Cosmos 2237 Rocket 2.2 22:38:32 10° NNW 22:44:11 67° ENE 22:44:34 64° E
Cosmos 2219 4.0 22:46:31 37° E 22:46:31 37° E 22:50:42 10° NE
Cosmos 1271 Rocket 4.4 22:42:09 10° NNW 22:44:31 30° NW 22:44:31 30° NW
Cosmos 1464 Rocket 4.0 22:46:12 62° ESE 22:46:33 63° E 22:52:38 10° NNE
NOSS 0 Rocket 3.8 22:45:07 10° NNW 22:51:23 79° WSW 22:51:50 74° SSW
Nadezhda 4 Rocket 4.2 22:48:05 10° N 22:54:16 58° ENE 22:54:56 55° ESE
Cosmos 2333 Rocket 3.1 22:52:12 10° NW 22:57:19 35° WSW 22:57:19 35° WSW
Geosat 4.3 22:58:12 58° W 22:58:12 58° W 23:02:39 10° NW
Cosmos 1503 Rocket 4.3 22:58:15 60° W 22:58:39 63° WNW 23:04:00 10° NNE
Cosmos 1513 Rocket 4.4 23:07:07 74° S 23:07:47 90° NW 23:14:15 10° N
Sich 1 Rocket 4.4 23:15:13 49° NNE 23:15:13 49° NNE 23:18:28 10° N
DNEPR-1 R/B 4.1 23:09:12 10° NW 23:14:42 77° NNW 23:14:42 77° NNW
ALOS 2 3.6 23:17:00 42° NW 23:17:00 42° NW 23:20:13 10° NNW
Cosmos 1092 Rocket 4.3 23:09:56 10° N 23:16:02 53° ENE 23:16:44 51° E
Lacrosse 4 Rocket 4.0 23:13:52 12° W 23:16:19 18° NW 23:19:15 10° N
Helios 1A 4.0 23:18:09 45° NNE 23:18:09 45° NNE 23:21:17 10° N
Cosmos 773 Rocket 4.3 23:13:17 10° NNW 23:17:38 56° WNW 23:17:38 56° WNW
Cosmos 2034 Rocket 3.9 23:19:27 75° SE 23:19:51 79° E 23:26:14 10° N
Cosmos 1072 Rocket 4.4 23:20:38 66° WSW 23:21:11 70° WNW 23:27:18 10° N
Cosmos 2227 Rocket 2.6 23:21:59 53° E 23:21:59 53° E 23:26:52 10° NE
Cosmos 1707 4.3 23:19:24 10° N 23:21:46 35° N 23:21:46 35° N
USA 267 4.1 23:17:55 10° NE 23:24:08 48° NNW 23:30:20 10° W
Cosmos 2219 Rocket 3.7 23:22:11 10° NW 23:26:05 23° W 23:26:05 23° W
Meteor 1-12 Rocket 4.3 23:28:42 74° ESE 23:28:48 75° E 23:34:50 10° NNE
Cosmos 1536 Rocket 4.5 23:26:27 10° N 23:29:39 46° NNE 23:29:39 46° NNE
Resurs 1-4 Rocket 4.4 23:33:18 10° ENE 23:34:58 11° E 23:35:32 11° E
Cosmos 1538 Rocket 4.3 23:31:11 10° NNW 23:35:35 60° WNW 23:35:35 60° WNW
Cosmos 158 Rocket 4.5 23:40:57 10° NNW 23:46:16 55° ENE 23:46:39 54° E
Cosmos 1607 3.8 23:40:35 10° NW 23:47:04 82° SW 23:47:26 78° S
Cosmos 2082 4.1 23:48:47 51° E 23:48:47 51° E 23:53:42 10° NE
Cosmos 1375 Rocket 4.4 23:48:19 71° SE 23:48:37 72° ESE 23:55:12 10° NE
USA 229 DEB 4.3 23:53:16 37° ESE 23:53:16 37° ESE 23:59:11 10° NE
USA 229 4.3 23:53:24 37° ESE 23:53:24 37° ESE 23:59:16 10° NE
Helios 1B rocket 3.9 23:51:42 10° NNE 23:54:18 32° NE 23:54:18 32° NE
